| time (UTC) | temp F | wind direction | speed MPH | gust MPH | rain 1hr in | rain 24hr in | rain mn in | humidity % | barometer mb |
| 20260503210022 | 62 | 255 | 7.0 | 15.0 | 0.00 | 0.00 | 0.00 | 37 | 1011.0 |
| 20260503204531 | 63 | 9 | 4.0 | 13.0 | 0.00 | 0.00 | 0.00 | 1011.0 | |
| 20260503203025 | 64 | 246 | 4.0 | 13.0 | 0.00 | 0.00 | 0.00 | 38 | 1011.3 |
| 20260503201526 | 63 | 193 | 5.0 | 16.0 | 0.00 | 0.00 | 0.00 | 37 | 1011.3 |
| 20260503200026 | 63 | 253 | 4.0 | 11.0 | 0.00 | 0.00 | 0.00 | 36 | 1011.6 |
| 20260503194528 | 63 | 230 | 5.0 | 14.0 | 0.00 | 0.00 | 0.00 | 36 | 1011.8 |
| 20260503193025 | 63 | 323 | 6.0 | 16.0 | 0.00 | 0.00 | 0.00 | 1011.9 | |
| 20260503191527 | 63 | 194 | 4.0 | 14.0 | 0.00 | 0.00 | 0.00 | 40 | 1012.0 |
| 20260503190027 | 63 | 341 | 6.0 | 19.0 | 0.00 | 0.00 | 0.00 | 38 | 1012.2 |
| 20260503184530 | 63 | 244 | 4.0 | 16.0 | 0.00 | 0.00 | 0.00 | 36 | 1012.5 |
| 20260503183040 | 63 | 300 | 4.0 | 15.0 | 0.00 | 0.00 | 0.00 | 1012.6 | |
| 20260503181508 | 62 | 203 | 5.0 | 17.0 | 0.00 | 0.00 | 0.00 | 36 | 1012.9 |
| 20260503180021 | 61 | 246 | 7.0 | 16.0 | 0.00 | 0.00 | 0.00 | 37 | 1013.2 |
| 20260503174519 | 62 | 263 | 5.0 | 18.0 | 0.00 | 0.00 | 0.00 | 1013.3 | |
| 20260503173013 | 63 | 265 | 3.0 | 18.0 | 0.00 | 0.00 | 0.00 | 40 | 1013.5 |
| 20260503171517 | 62 | 142 | 2.0 | 14.0 | 0.00 | 0.00 | 0.00 | 41 | 1013.7 |
| 20260503081539 | 33 | 352 | 0.0 | 0.0 | 0.00 | 0.00 | 0.00 | 83 | 1016.1 |
| 20260503071543 | 32 | 352 | 0.0 | 2.0 | 0.00 | 0.00 | 0.00 | 85 | 1016.2 |
| 20260503054530 | 32 | 352 | 0.0 | 0.0 | 0.00 | 0.00 | 0.00 | 83 | 1016.7 |
| 20260503053020 | 33 | 352 | 0.0 | 0.0 | 0.00 | 0.00 | 0.00 | 82 | 1016.8 |
| 20260503051529 | 33 | 352 | 0.0 | 0.0 | 0.00 | 0.00 | 0.00 | 81 | 1016.8 |
| 20260503050022 | 33 | 352 | 0.0 | 0.0 | 0.00 | 0.00 | 0.00 | 81 | 1016.8 |
| 20260503044526 | 34 | 352 | 0.0 | 0.0 | 0.00 | 0.00 | 0.00 | 80 | 1017.0 |
| 20260503043025 | 35 | 352 | 0.0 | 0.0 | 0.00 | 0.00 | 0.00 | 78 | 1016.9 |
| 20260503041528 | 35 | 352 | 0.0 | 0.0 | 0.00 | 0.00 | 0.00 | 78 | 1017.0 |
| 20260503040024 | 36 | 352 | 0.0 | 0.0 | 0.00 | 0.00 | 0.00 | 77 | 1017.0 |
| 20260503034526 | 36 | 352 | 0.0 | 0.0 | 0.00 | 0.00 | 0.00 | 77 | 1017.0 |
| 20260503033025 | 37 | 352 | 0.0 | 0.0 | 0.00 | 0.00 | 0.00 | 75 | 1017.1 |
| 20260503031531 | 37 | 352 | 0.0 | 0.0 | 0.00 | 0.00 | 0.00 | 73 | 1017.2 |
| 20260503030034 | 38 | 352 | 0.0 | 0.0 | 0.00 | 0.00 | 0.00 | 71 | 1017.2 |
| 20260503024508 | 40 | 352 | 0.0 | 0.0 | 0.00 | 0.00 | 0.00 | 68 | 1017.2 |
| 20260503023010 | 40 | 352 | 0.0 | 0.0 | 0.00 | 0.00 | 0.00 | 67 | 1017.3 |
| 20260503021511 | 41 | 352 | 0.0 | 0.0 | 0.00 | 0.00 | 0.00 | 66 | 1017.2 |
| 20260503020013 | 42 | 352 | 0.0 | 0.0 | 0.00 | 0.00 | 0.00 | 66 | 1017.0 |
| 20260503014513 | 42 | 352 | 0.0 | 0.0 | 0.00 | 0.00 | 0.00 | 61 | 1017.0 |
| 20260503013027 | 43 | 352 | 0.0 | 0.0 | 0.00 | 0.00 | 0.00 | 61 | 1016.9 |
| 20260503011513 | 44 | 352 | 0.0 | 0.0 | 0.00 | 0.00 | 0.00 | 57 | 1016.8 |
| 20260503010017 | 44 | 352 | 0.0 | 0.0 | 0.00 | 0.00 | 0.00 | 56 | 1016.9 |
| 20260503004518 | 45 | 352 | 0.0 | 0.0 | 0.00 | 0.00 | 0.00 | 54 | 1016.8 |
| 20260503003022 | 46 | 352 | 0.0 | 0.0 | 0.00 | 0.00 | 0.00 | 51 | 1016.8 |
| 20260503001520 | 46 | 352 | 0.0 | 2.0 | 0.00 | 0.00 | 0.00 | 47 | 1016.7 |
| 20260503000022 | 47 | 321 | 0.0 | 2.0 | 0.00 | 0.00 | 0.00 | 47 | 1016.6 |
| 20260502234530 | 47 | 9 | 1.0 | 4.0 | 0.00 | 0.00 | 0.00 | 46 | 1016.6 |
| 20260502233023 | 47 | 287 | 3.0 | 4.0 | 0.00 | 0.00 | 0.00 | 44 | 1016.6 |
| 20260502231528 | 47 | 343 | 1.0 | 5.0 | 0.00 | 0.00 | 0.00 | 46 | 1016.7 |
| 20260502230024 | 47 | 25 | 3.0 | 8.0 | 0.00 | 0.00 | 0.00 | 44 | 1016.7 |
| 20260502224523 | 48 | 325 | 2.0 | 6.0 | 0.00 | 0.00 | 0.00 | 43 | 1016.7 |
| 20260502223025 | 48 | 234 | 3.0 | 7.0 | 0.00 | 0.01 | 0.00 | 41 | 1016.6 |
| 20260502221525 | 48 | 304 | 3.0 | 5.0 | 0.00 | 0.01 | 0.00 | 45 | 1016.7 |
| 20260502220026 | 48 | 11 | 3.0 | 9.0 | 0.00 | 0.01 | 0.00 | 43 | 1016.8 |
| 20260502214525 | 48 | 32 | 2.0 | 11.0 | 0.00 | 0.01 | 0.00 | 45 | 1016.7 |
| 20260502213036 | 48 | 321 | 2.0 | 10.0 | 0.00 | 0.01 | 0.00 | 42 | 1016.7 |
| 20260502211513 | 48 | 5 | 3.0 | 9.0 | 0.00 | 0.01 | 0.00 | 43 | 1016.8 |